Weather in Vetluga

Russia / Nizhny Novgorod Oblast'     57°51′10″N   45°46′33″E
temp.,
°C
wind,
m/s
gust,
m/s
humid.,
%
clouds,
%
prec.,
mm/h
press.,
hPa
HPBL,
m
8 march, mon
mon800:00−6sse3796100 1.3 991383
03:00−8s2297100 1.8 99046
06:00−9w3896100 0.1 990267
09:00−9w4794100 0.1 992336
12:00−6w3689100 0.0 995654
15:00−5w3585100 0.1 996898
18:00−8nw2496100 0.3 999144
21:00−12nnw369796 0.4 1002126
9 march, tue
tue900:00−14nnw269777 0.0 1004134
03:00−16nnw379781 0.1 1007185
06:00−19n369892 0.0 1009141
09:00−17n359590 0.1 1011291
12:00−14n3492100 0.0 1012447
15:00−13n4691100 0.1 1013617
18:00−16n3894100 0.1 1015355
21:00−19n41095100 0.1 1017348
10 march, wed
wed1000:00−24n399692 0.0 1018256
03:00−27n399661 0.0 1020215
06:00−29n399615 0.0 1022214
09:00−25n479417 0.0 1023298
12:00−19n468919 0.0 1023511
15:00−16nnw368320 0.0 1023756
18:00−19nw239599 0.0 102454
21:00−22nw339864 0.0 102568
11 march, thu
thu1100:00−23nw339913 0.0 102575
03:00−24wnw34997 0.0 102680
06:00−23wnw39976 0.0 1026180
09:00−16wnw489450 0.0 1026307
12:00−9nw488589 0.0 1026445
15:00−6nw488057 0.0 1026692
18:00−10wnw36910 0.0 1026127
21:00−13wnw37930 0.0 1028139
12 march, fri
fri1200:00−16w34960 0.0 102882
03:00−18w33970 0.0 102882
06:00−19wsw389811 0.0 1029148
09:00−14wsw489312 0.0 1029281
12:00−9wsw488584 0.0 1028642
15:00−8wsw488192 0.0 1028761
18:00−11sw399186 0.0 1027232
21:00−13sw4119454 0.0 1028287